This is the latest recevied weather packets stored in our database for station/object XQ6AK-15. If no packets are shown the sender has not sent any weather packets the latest 10 day(s).
| Time | Temp. | Humidity | Pressure | Rain* | Wind** | Luminosity | Snow |
|---|---|---|---|---|---|---|---|
| 1787521420 | 13.89° C | 70% | 1012.8 hPa | 0 mm | - | 21 W/m² | - |
| 1787521119 | 14.44° C | 64% | 1012.7 hPa | 0 mm | - | 23 W/m² | - |
| 1787520815 | 15° C | 63% | 1013 hPa | 0 mm | - | 26 W/m² | - |
| 1787520510 | 15° C | 62% | 1012.9 hPa | 0 mm | - | 27 W/m² | - |
| 1787520206 | 15.56° C | 61% | 1012.8 hPa | 0 mm | - | 28 W/m² | - |
| 1787519901 | 15.56° C | 58% | 1012.8 hPa | 0 mm | - | 33 W/m² | - |
| 1787519597 | 16.11° C | 56% | 1013.1 hPa | 0 mm | - | 32 W/m² | - |
| 1787519296 | 16.67° C | 59% | 1013.1 hPa | 0 mm | - | 44 W/m² | - |
| 1787518992 | 16.67° C | 53% | 1013.1 hPa | 0 mm | - | 35 W/m² | - |
| 1787518687 | 16.67° C | 52% | 1012.9 hPa | 0 mm | - | 47 W/m² | - |
| 1787518382 | 16.67° C | 55% | 1013.1 hPa | 0 mm | - | 91 W/m² | - |
| 1787518078 | 16.67° C | 55% | 1013.4 hPa | 0 mm | - | 94 W/m² | - |
| 1787517773 | 16.67° C | 54% | 1013.3 hPa | 0 mm | - | 103 W/m² | - |
| 1787517470 | 16.67° C | 53% | 1013.4 hPa | 0 mm | - | 134 W/m² | - |
| 1787517166 | 16.67° C | 54% | 1013.5 hPa | 0 mm | - | 153 W/m² | - |
| 1787516864 | 16.67° C | 52% | 1013.2 hPa | 0 mm | - | 177 W/m² | - |
| 1787516560 | 16.67° C | 51% | 1013.5 hPa | 0 mm | - | 161 W/m² | - |
| 1787516259 | 16.67° C | 52% | 1013.5 hPa | 0 mm | - | 175 W/m² | - |
| 1787515955 | 16.67° C | 53% | 1013.7 hPa | 0 mm | - | 136 W/m² | - |
| 1787515651 | 16.11° C | 53% | 1013.9 hPa | 0 mm | - | 146 W/m² | - |
| 1787515345 | 16.11° C | 56% | 1013.8 hPa | 0 mm | - | 125 W/m² | - |
| 1787515040 | 16.11° C | 54% | 1014.1 hPa | 0 mm | - | 145 W/m² | - |
| 1787514738 | 16.11° C | 55% | 1014.2 hPa | 0 mm | - | 217 W/m² | - |
| 1787514433 | 16.67° C | 54% | 1014.3 hPa | 0 mm | - | 256 W/m² | - |
| 1787514133 | 17.22° C | 57% | 1014.5 hPa | 0 mm | - | 207 W/m² | - |
* Rain latest hour (hover to see other rain measurements)
** Current wind speed in m/s (hover to see current wind gust speed)